Wind_Speed
81 82 80 78 76 73 72 68 65 61 57 51 46 42 37 35 33 30 30 30 29 26 24 23 20 17 14 12 10 9 7 5 3 2 3 4 6 6 6 7 6 8 9 10 8 7 7 9 9 9 8 8 6 5
86 87 87 83 82 82 79 76 74 69 65 62 56 51 45 42 40 36 35 33 31 30 29 27 27 25 21 18 15 13 11 9 7 6 5 5 5 4 4 5 7 7 8 8 6 5 7 6 4 5 5 5 4 3
93 92 89 92 90 87 86 84 80 78 74 70 64 60 55 50 47 44 40 38 35 33 31 32 31 31 28 25 21 19 15 13 12 10 8 7 7 7 6 5 4 6 8 8 7 4 4 4 2 1 1 1 1 2
104 100 97 96 94 95 91 90 89 84 81 77 72 67 64 59 55 52 49 46 41 39 35 35 34 35 34 32 29 26 22 19 17 15 13 12 11 11 9 8 6 5 5 7 8 7 4 3 2 2 2 1 1 2
103 108 106 106 99 101 100 96 95 92 88 84 79 74 70 67 64 59 56 53 49 45 42 39 38 37 37 35 34 33 30 27 24 21 18 17 15 15 14 11 9 7 7 7 6 7 8 7 6 6 5 5 6 6
86 92 106 111 113 106 106 104 99 97 95 91 86 82 76 72 70 66 62 59 57 52 48 44 41 39 37 37 37 36 35 33 30 28 26 23 20 21 19 15 13 12 11 10 9 9 9 9 10 10 9 9 9 10
78 83 88 105 116 117 111 110 106 102 100 98 93 89 84 79 75 73 67 65 62 57 55 50 44 42 41 38 37 39 37 37 35 34 33 31 30 30 26 19 22 18 16 14 11 12 13 12 13 13 13 13 13 13
71 76 82 88 107 121 120 117 113 110 104 103 101 96 91 86 80 76 73 72 69 65 61 55 48 48 47 46 41 38 39 38 36 36 36 35 34 35 29 23 27 25 22 21 20 17 15 14 15 15 15 16 17 18
64 70 76 82 91 109 125 121 120 114 112 108 107 103 98 92 87 83 78 78 74 70 64 56 57 57 50 48 48 44 41 38 36 35 34 33 34 38 33 26 29 30 28 26 25 24 22 21 20 19 21 22 23 20
58 64 69 74 80 90 107 125 122 119 117 114 109 108 104 98 94 90 86 83 78 72 65 62 64 62 60 56 51 51 46 42 39 37 34 32 33 32 30 27 33 35 34 30 28 26 25 24 25 26 24 20 17 14
55 59 64 69 73 79 89 106 124 125 123 120 117 112 108 105 102 98 93 86 78 70 63 62 66 70 68 63 59 57 53 47 44 41 40 36 36 34 32 27 26 32 35 33 30 30 28 25 23 19 15 13 11 11
51 54 58 63 67 72 78 87 101 121 126 124 119 116 112 110 107 102 96 88 79 74 66 65 72 72 72 71 69 62 61 55 48 47 44 37 41 40 36 35 32 31 30 29 25 24 24 23 22 20 18 16 15 14
45 49 52 56 60 64 72 80 89 99 117 124 125 121 116 112 112 107 97 88 80 76 74 73 80 81 76 72 70 67 61 58 57 52 47 46 47 45 41 37 35 35 35 35 33 31 30 29 27 25 23 23 22 22
42 44 48 51 54 60 66 73 81 88 97 114 123 123 121 115 109 105 102 98 89 84 82 82 84 83 78 74 70 67 65 61 58 53 53 53 54 57 53 45 42 42 40 39 38 37 36 35 33 33 32 31 30 28
38 41 45 47 49 54 60 68 73 79 84 96 117 120 119 118 114 109 106 103 96 92 89 86 87 87 84 77 71 70 68 66 59 55 55 56 55 61 62 56 51 48 47 46 43 41 41 40 38 36 34 33 32 30
35 39 41 42 45 48 54 59 64 70 76 83 98 117 117 118 115 112 104 106 102 96 93 93 92 89 86 83 75 71 66 64 62 62 62 63 63 62 66 62 59 57 54 51 49 47 44 44 43 42 41 40 39 36
34 35 35 37 39 42 45 49 55 61 69 76 83 97 115 115 119 113 111 103 102 102 100 96 95 91 90 86 80 74 68 67 65 65 66 66 64 62 63 64 61 59 59 57 54 51 48 47 47 47 46 45 44 41
29 29 30 32 35 36 38 42 48 52 58 68 75 83 99 116 113 114 112 110 105 104 104 99 96 95 92 91 85 78 74 72 70 68 66 67 67 65 64 64 63 61 62 61 59 56 54 53 52 50 50 49 48 46
26 26 27 29 31 32 34 37 41 47 54 62 69 76 85 100 114 114 115 111 105 102 102 103 101 96 95 91 86 84 81 78 75 73 72 70 69 70 71 70 69 68 66 64 62 58 55 55 55 55 54 55 52 49
22 22 24 26 27 29 31 35 38 44 49 57 65 72 79 90 104 112 116 116 111 106 103 101 98 97 96 94 90 87 83 81 81 78 78 76 74 74 72 71 72 72 70 68 67 64 61 57 53 52 55 57 57 55
19 20 21 22 24 25 27 31 35 40 44 49 54 60 68 81 95 108 115 113 108 104 99 95 96 96 95 93 91 89 87 86 87 87 85 81 79 78 77 76 75 74 72 70 69 69 68 63 59 56 54 56 58 57
16 16 18 19 21 22 24 27 30 33 38 45 51 57 66 76 87 98 109 112 109 106 102 100 99 95 91 91 90 86 85 86 88 91 90 89 87 84 81 79 78 76 76 75 73 72 72 70 67 65 61 59 60 61
11 13 16 16 18 21 22 24 27 31 36 43 48 53 60 69 80 92 101 110 113 112 110 106 103 98 95 93 90 89 87 84 84 87 88 89 89 87 85 85 84 83 82 79 78 76 75 73 72 69 67 64 62 62
10 11 12 14 15 17 20 22 24 28 33 37 42 48 55 62 71 84 97 106 108 106 107 108 105 100 98 96 94 92 89 84 82 83 84 86 88 88 87 85 84 84 85 85 83 83 81 78 76 75 73 70 69 66
8 8 9 11 13 15 17 19 22 25 30 33 37 43 48 55 63 73 84 99 110 112 108 104 104 106 105 103 101 98 94 94 93 91 89 85 83 84 87 90 89 88 86 86 85 85 84 83 80 78 78 75 73 72
7 7 8 10 11 13 15 17 19 23 25 29 32 37 43 48 53 59 68 80 94 103 110 112 112 108 106 105 104 102 100 98 98 97 94 92 93 91 88 87 87 89 89 91 90 89 88 85 84 83 82 82 79 74
7 8 10 10 11 13 14 15 18 20 23 25 28 31 34 37 43 49 56 62 74 87 97 101 105 108 109 108 106 104 102 100 100 100 98 97 96 94 96 95 94 93 90 89 89 90 90 90 90 88 87 85 83 80
5 6 8 10 12 14 15 15 16 17 19 20 23 26 28 32 35 38 43 49 57 65 76 88 99 103 105 107 107 107 107 107 106 104 102 100 99 100 101 102 101 99 99 98 97 96 95 94 94 94 95 91 89 86
6 6 5 6 9 11 13 14 16 16 16 16 16 19 22 26 28 32 34 37 41 46 52 60 69 79 90 96 97 95 96 99 102 105 106 105 104 103 103 104 103 103 104 103 102 101 102 101 101 102 101 97 98 96
9 8 8 7 7 9 11 13 15 17 17 17 17 17 18 19 22 25 28 31 35 39 43 47 52 56 62 68 74 80 85 88 89 89 90 88 87 85 84 83 81 81 80 79 81 83 87 91 96 102 104 102 101 103
14 14 14 15 15 15 14 13 13 14 15 16 16 16 16 16 17 18 19 21 24 28 31 35 39 42 45 48 50 54 57 59 61 63 63 63 63 63 63 62 60 60 60 61 62 65 66 67 71 75 78 82 88 96
19 18 17 18 18 19 19 19 18 17 17 15 15 13 12 12 12 12 13 14 16 18 20 23 26 29 32 34 36 39 42 43 46 47 48 48 47 46 47 48 47 47 47 48 50 52 53 53 55 56 58 63 69 75
30 29 29 28 28 27 26 25 24 22 21 19 18 16 14 12 11 10 9 9 10 11 13 14 16 18 21 23 25 27 29 30 32 34 36 36 36 35 34 35 35 37 39 40 42 45 45 46 46 47 49 52 57 59
Wind_Direction
247 247 247 245 242 240 240 239 241 241 239 237 235 235 238 239 236 233 235 233 230 230 233 229 221 215 214 214 207 219 218 202 167 133 112 113 121 123 107 103 108 118 127 144 158 145 123 116 122 139 145 145 141 139
244 241 241 241 242 240 237 238 237 238 240 238 234 233 232 233 234 236 234 233 232 230 229 231 231 223 215 219 213 216 221 221 210 204 193 166 159 162 154 140 132 126 126 146 158 129 120 130 134 134 134 140 132 117
252 239 238 238 238 238 238 236 236 236 236 237 236 232 231 229 230 232 233 233 234 234 233 229 231 232 227 221 221 219 217 219 223 222 218 202 191 197 183 179 173 156 145 151 179 179 160 167 171 174 271 290 304 277
248 241 239 236 235 233 235 236 234 234 234 234 235 233 231 229 228 228 231 234 233 236 234 234 231 233 231 229 227 228 221 224 222 223 224 224 214 213 216 207 201 201 188 184 184 199 198 178 171 223 257 333 294 298
244 240 236 233 233 230 230 232 234 232 232 232 233 233 232 230 229 228 228 230 234 234 233 232 233 234 233 232 232 233 230 227 228 227 227 229 226 227 232 228 223 220 220 228 230 218 211 212 219 237 259 272 282 293
245 241 236 231 228 227 226 227 230 232 231 230 231 231 230 230 227 227 228 230 232 234 233 233 230 234 235 232 233 233 235 233 233 232 231 233 236 236 234 235 239 237 236 241 242 252 255 251 251 258 261 264 270 279
245 240 237 230 226 223 223 224 226 228 230 229 228 229 229 228 228 227 227 226 228 230 232 233 231 229 234 233 230 232 231 234 234 236 238 238 240 242 241 240 247 243 245 247 248 251 260 271 280 286 289 289 294 303
242 238 234 232 227 224 222 222 223 225 228 229 227 227 227 228 227 226 226 227 227 228 229 232 232 232 230 235 233 228 229 230 232 232 234 237 240 245 243 237 244 245 242 241 243 244 253 262 266 272 278 283 289 296
240 237 234 232 230 227 224 222 221 223 224 226 227 226 226 227 227 227 225 226 227 228 228 228 230 233 233 229 236 233 226 226 228 232 234 235 238 244 244 233 240 243 242 247 251 253 256 258 260 264 269 277 283 290
240 236 235 233 231 229 226 224 224 222 221 223 225 225 226 226 226 226 226 227 227 227 227 228 231 232 234 233 229 233 231 228 227 231 235 232 235 242 243 235 235 243 244 240 245 253 259 265 269 272 275 275 273 269
239 237 235 234 232 229 227 225 224 223 221 222 224 224 224 224 225 225 226 224 226 227 224 227 231 232 230 233 232 228 232 231 231 232 236 235 235 237 243 239 233 235 245 248 247 248 251 252 255 258 253 254 250 256
238 235 234 233 231 229 228 226 223 222 222 221 220 223 223 224 225 225 225 223 223 224 225 227 231 233 232 232 235 236 231 234 235 232 238 238 240 240 240 241 238 229 238 246 245 243 242 244 243 247 249 250 252 256
238 235 233 232 231 229 227 225 223 222 222 221 221 221 222 222 224 224 222 221 222 223 224 226 233 235 232 230 232 235 234 231 235 236 237 240 244 245 244 241 240 239 236 241 248 246 244 246 248 248 251 253 257 261
238 236 234 232 230 228 227 226 224 224 222 221 220 221 221 221 223 224 224 222 222 222 223 225 230 235 234 231 230 232 234 232 231 233 236 235 238 245 247 244 240 241 244 244 242 245 249 250 250 251 253 256 259 261
236 235 234 234 232 230 228 227 226 225 223 220 219 219 220 220 222 223 223 223 222 221 222 225 230 234 235 233 232 232 233 235 235 232 232 236 237 243 245 246 246 245 247 249 250 248 249 250 252 253 254 254 255 257
235 234 236 236 235 231 229 228 227 225 224 221 220 217 218 219 219 222 222 223 223 222 224 226 229 231 234 235 234 233 232 233 233 234 233 235 238 238 244 243 243 247 248 248 250 252 250 250 252 252 253 255 257 256
234 236 237 236 234 232 230 228 225 223 221 221 219 217 217 217 219 220 221 223 224 224 225 227 229 230 233 234 233 233 232 231 232 233 234 233 234 237 240 245 245 246 248 248 247 247 248 247 248 251 254 254 256 257
237 236 233 233 233 232 229 226 223 221 218 217 216 215 215 216 216 218 220 221 221 224 226 226 228 229 230 232 233 233 232 233 232 233 234 235 236 237 238 243 248 249 250 251 250 245 245 247 249 250 253 254 255 255
233 231 231 231 230 228 226 223 220 217 215 214 213 213 213 213 213 214 216 218 220 222 225 227 227 229 231 232 234 234 234 235 236 236 237 237 238 238 239 240 243 249 251 250 249 247 247 247 249 250 251 253 253 253
231 229 229 227 226 223 221 219 216 214 213 212 211 211 212 212 211 211 214 216 217 221 223 226 228 230 232 233 234 236 237 238 238 239 240 241 239 238 240 242 242 244 249 250 250 249 247 247 245 245 247 250 251 251
225 224 224 222 221 221 220 218 217 215 212 212 212 211 213 212 209 210 213 215 217 220 224 226 230 231 232 235 235 234 236 238 238 238 239 240 241 242 242 242 243 245 246 248 248 249 249 249 245 244 244 245 249 250
221 220 218 218 218 218 216 215 216 215 212 211 210 210 211 212 210 210 212 215 218 220 223 226 227 229 231 234 236 237 237 238 239 240 240 241 241 242 243 245 245 245 245 246 248 249 249 251 250 249 247 244 245 249
210 214 217 214 213 213 214 212 211 210 210 211 211 212 212 213 211 210 212 214 217 220 222 224 226 228 230 233 236 238 238 236 237 239 242 242 242 241 243 245 244 244 246 246 246 247 249 250 251 250 249 247 245 247
199 206 208 211 210 210 211 211 209 207 209 209 210 211 212 213 212 212 213 215 217 219 223 225 226 227 230 233 234 236 239 240 239 238 239 241 242 242 242 243 244 244 244 245 247 248 249 249 250 250 249 249 248 248
200 207 207 205 209 212 212 211 207 206 208 209 209 209 211 212 213 215 214 215 218 220 223 225 228 229 231 234 236 238 240 243 244 245 245 245 245 245 245 245 244 244 244 245 245 245 248 250 249 247 248 248 247 248
205 210 214 217 217 215 213 211 208 208 209 208 208 211 213 214 215 216 217 218 219 222 225 227 229 230 232 235 238 240 242 245 246 246 247 248 249 248 248 247 247 246 245 244 245 245 245 245 248 248 247 248 246 246
232 233 233 230 225 223 220 215 214 214 209 208 209 210 212 214 217 218 219 221 222 222 224 226 229 231 234 236 238 240 242 243 245 248 249 250 250 251 252 252 251 250 248 247 247 245 244 243 244 246 248 248 248 247
208 219 227 229 225 221 217 213 211 213 214 212 210 210 212 213 215 217 219 221 224 225 227 228 229 232 235 237 239 241 244 246 247 249 251 251 251 252 253 254 254 253 254 254 252 251 249 248 246 245 246 247 248 248
165 175 194 207 204 204 203 203 204 206 207 206 205 208 210 213 216 220 223 225 227 229 230 231 233 235 236 238 239 241 244 245 248 250 253 254 255 255 256 257 257 258 258 256 254 253 251 249 248 248 247 245 245 244
114 108 100 108 137 156 165 173 182 186 190 193 196 197 200 203 207 213 218 221 224 226 229 231 233 235 237 238 240 242 244 247 250 251 252 253 254 255 255 255 255 254 254 253 252 252 250 248 246 245 245 243 243 243
108 104 99 95 101 111 123 133 143 156 168 176 182 186 190 195 201 208 213 217 220 223 226 229 231 233 235 238 240 241 243 245 246 247 248 249 250 250 251 252 252 252 251 250 249 249 248 247 245 244 243 241 239 238
102 102 101 99 99 100 103 107 112 119 126 136 144 154 166 177 186 194 201 208 214 219 223 227 230 232 234 237 239 240 242 243 244 245 246 246 246 247 247 249 249 249 250 250 248 247 245 244 244 242 239 237 235 234
97 96 96 96 95 95 96 98 101 105 109 112 116 122 129 137 145 157 169 186 199 210 218 223 227 232 235 238 241 242 244 245 245 245 246 245 245 244 243 243 244 243 242 242 241 242 241 239 237 235 234 233 233 232
Height
10733 10741 10747 10754 10761 10769 10776 10784 10790 10796 10802 10809 10814 10819 10823 10827 10832 10835 10837 10840 10844 10848 10851 10853 10856 10857 10859 10860 10862 10864 10866 10867 10868 10868 10869 10870 10870 10871 10872 10874 10876 10877 10878 10880 10881 10882 10885 10886 10887 10888 10890 10891 10893 10895
10701 10708 10716 10724 10733 10742 10751 10760 10768 10777 10784 10791 10799 10806 10812 10816 10821 10826 10829 10831 10835 10839 10843 10847 10850 10853 10855 10857 10860 10861 10863 10865 10867 10868 10869 10870 10872 10873 10874 10875 10876 10878 10880 10881 10882 10883 10885 10886 10887 10889 10891 10892 10894 10895
10659 10670 10681 10691 10702 10712 10722 10733 10743 10753 10763 10771 10781 10790 10797 10802 10808 10813 10819 10823 10826 10829 10834 10838 10842 10845 10850 10853 10856 10858 10860 10862 10864 10866 10868 10870 10871 10873 10875 10876 10878 10879 10880 10882 10883 10884 10885 10887 10888 10889 10890 10892 10894 10896
10609 10624 10638 10652 10666 10679 10692 10704 10715 10727 10739 10749 10760 10770 10779 10786 10793 10800 10806 10811 10817 10820 10825 10829 10833 10836 10841 10846 10851 10853 10856 10858 10860 10863 10866 10868 10870 10872 10873 10876 10878 10880 10881 10882 10883 10884 10885 10886 10887 10889 10890 10891 10892 10894
10556 10572 10590 10610 10626 10644 10659 10672 10685 10699 10712 10725 10736 10748 10759 10768 10776 10783 10791 10798 10804 10809 10813 10818 10822 10827 10832 10837 10842 10846 10850 10852 10855 10858 10861 10864 10867 10869 10871 10874 10876 10878 10880 10881 10882 10884 10885 10886 10887 10888 10889 10890 10891 10892
10512 10525 10542 10562 10584 10603 10622 10638 10654 10668 10684 10698 10712 10724 10736 10747 10757 10766 10775 10784 10789 10795 10802 10805 10813 10817 10822 10827 10832 10837 10841 10845 10848 10852 10855 10858 10861 10863 10867 10871 10874 10876 10878 10880 10882 10883 10885 10886 10887 10888 10889 10889 10890 10890
10476 10488 10501 10519 10541 10561 10583 10603 10621 10638 10653 10670 10685 10699 10712 10725 10736 10747 10759 10764 10771 10781 10788 10794 10802 10809 10811 10816 10821 10825 10831 10835 10839 10843 10847 10851 10853 10856 10862 10867 10868 10872 10875 10878 10880 10881 10881 10882 10883 10883 10885 10886 10887 10886
10447 10457 10470 10484 10503 10523 10545 10566 10586 10606 10624 10640 10657 10671 10687 10702 10715 10726 10738 10745 10754 10764 10772 10783 10792 10794 10800 10804 10809 10815 10820 10824 10830 10834 10837 10842 10845 10848 10855 10862 10861 10863 10867 10870 10872 10874 10876 10877 10877 10877 10878 10879 10880 10881
10421 10432 10443 10456 10471 10487 10509 10531 10551 10573 10593 10608 10627 10644 10662 10678 10693 10704 10716 10724 10734 10746 10760 10773 10778 10778 10786 10794 10798 10804 10809 10815 10820 10825 10829 10833 10836 10839 10847 10854 10853 10854 10858 10861 10864 10867 10869 10871 10872 10873 10874 10874 10874 10875
10401 10410 10420 10431 10444 10459 10475 10497 10518 10538 10559 10579 10598 10618 10636 10652 10668 10679 10691 10702 10716 10732 10748 10759 10762 10767 10771 10779 10786 10790 10797 10805 10811 10814 10820 10826 10828 10832 10837 10843 10845 10845 10848 10853 10856 10859 10861 10863 10864 10866 10867 10868 10869 10869
10382 10390 10399 10408 10419 10432 10447 10463 10484 10504 10526 10547 10569 10588 10607 10621 10636 10651 10666 10684 10702 10720 10735 10745 10746 10748 10756 10762 10769 10776 10784 10794 10800 10805 10809 10818 10821 10824 10828 10834 10837 10838 10839 10844 10849 10852 10854 10856 10857 10859 10862 10864 10865 10865
10365 10372 10379 10388 10398 10410 10422 10435 10451 10473 10493 10515 10537 10555 10576 10595 10610 10625 10646 10668 10688 10704 10719 10728 10724 10724 10735 10743 10750 10761 10771 10780 10789 10795 10799 10809 10810 10814 10819 10824 10829 10832 10833 10836 10841 10844 10846 10849 10851 10854 10856 10858 10860 10861
10349 10355 10363 10371 10381 10390 10399 10412 10426 10442 10462 10485 10507 10527 10549 10566 10581 10605 10630 10653 10669 10684 10697 10705 10698 10699 10713 10725 10735 10743 10755 10767 10776 10784 10793 10798 10797 10801 10808 10814 10819 10822 10827 10829 10832 10836 10839 10842 10844 10847 10849 10850 10852 10854
10335 10341 10347 10355 10363 10372 10381 10391 10403 10417 10433 10454 10477 10498 10517 10542 10564 10589 10608 10627 10645 10660 10670 10679 10675 10680 10697 10707 10719 10730 10739 10751 10762 10774 10781 10785 10787 10786 10793 10801 10807 10811 10815 10819 10824 10827 10830 10833 10836 10838 10840 10842 10843 10845
10323 10328 10333 10340 10348 10354 10363 10373 10383 10396 10410 10426 10446 10469 10499 10520 10538 10559 10581 10602 10619 10633 10646 10653 10657 10666 10674 10689 10703 10713 10725 10737 10752 10762 10765 10768 10774 10772 10776 10784 10790 10796 10802 10806 10811 10816 10820 10823 10825 10828 10831 10833 10833 10836
10311 10315 10321 10327 10333 10339 10347 10356 10366 10378 10390 10405 10421 10450 10472 10495 10515 10538 10557 10575 10592 10611 10620 10627 10634 10645 10656 10670 10686 10697 10711 10725 10734 10740 10746 10751 10755 10759 10757 10766 10774 10780 10786 10792 10798 10802 10807 10811 10814 10816 10819 10820 10823 10826
10301 10306 10311 10315 10320 10326 10334 10342 10351 10361 10373 10387 10404 10426 10447 10468 10491 10511 10535 10556 10573 10584 10592 10605 10614 10628 10638 10650 10664 10681 10695 10703 10712 10720 10726 10732 10737 10743 10746 10747 10756 10764 10769 10774 10782 10787 10792 10796 10800 10803 10806 10809 10810 10815
10293 10297 10301 10306 10310 10315 10322 10329 10337 10348 10360 10370 10386 10403 10421 10444 10466 10493 10513 10530 10545 10553 10567 10583 10594 10602 10617 10627 10643 10662 10672 10682 10692 10700 10706 10714 10721 10727 10732 10735 10737 10744 10750 10757 10763 10771 10776 10780 10785 10789 10792 10795 10798 10801
10286 10290 10294 10298 10302 10308 10313 10319 10327 10335 10343 10355 10369 10383 10401 10418 10441 10465 10488 10508 10523 10534 10546 10557 10571 10583 10596 10610 10623 10638 10652 10661 10671 10680 10688 10695 10702 10707 10712 10718 10723 10725 10731 10738 10745 10752 10758 10764 10769 10773 10776 10779 10782 10787
10282 10285 10288 10292 10296 10301 10306 10312 10318 10325 10333 10342 10353 10368 10383 10398 10418 10445 10468 10480 10499 10511 10522 10538 10554 10566 10577 10589 10604 10618 10630 10642 10651 10658 10666 10674 10681 10687 10692 10698 10703 10707 10712 10718 10725 10732 10739 10745 10751 10756 10760 10762 10766 10770
10278 10280 10284 10288 10292 10297 10302 10307 10312 10320 10329 10339 10352 10367 10379 10390 10406 10427 10447 10467 10488 10502 10512 10526 10534 10543 10555 10567 10582 10596 10606 10616 10624 10632 10642 10650 10658 10666 10672 10679 10683 10688 10693 10699 10705 10711 10718 10725 10733 10739 10744 10747 10750 10754
10276 10279 10282 10286 10289 10294 10298 10303 10309 10317 10326 10335 10343 10354 10364 10375 10394 10416 10434 10456 10474 10483 10492 10500 10510 10522 10535 10545 10559 10576 10588 10592 10598 10606 10616 10626 10635 10643 10651 10660 10665 10668 10674 10681 10687 10692 10697 10703 10712 10719 10725 10731 10735 10738
10276 10278 10280 10284 10287 10291 10295 10300 10305 10312 10318 10326 10335 10345 10355 10366 10382 10401 10419 10432 10443 10454 10466 10476 10489 10506 10519 10530 10542 10551 10559 10567 10574 10583 10592 10601 10610 10622 10631 10637 10644 10648 10652 10660 10665 10670 10676 10682 10688 10696 10702 10709 10715 10720
10274 10277 10280 10283 10286 10289 10292 10297 10302 10308 10313 10320 10327 10336 10346 10357 10369 10384 10397 10412 10427 10439 10450 10461 10476 10490 10499 10507 10514 10521 10533 10546 10553 10559 10567 10574 10582 10595 10603 10611 10619 10624 10632 10638 10643 10647 10652 10660 10668 10674 10680 10686 10692 10698
10275 10276 10279 10281 10283 10287 10290 10294 10299 10304 10309 10316 10323 10330 10338 10346 10356 10368 10382 10396 10408 10422 10433 10442 10456 10468 10477 10486 10495 10505 10515 10522 10528 10535 10543 10553 10562 10570 10579 10586 10593 10601 10609 10613 10620 10626 10627 10633 10644 10651 10654 10660 10668 10674
10276 10277 10279 10281 10283 10286 10288 10292 10296 10301 10306 10312 10319 10325 10332 10340 10349 10360 10370 10381 10392 10404 10414 10425 10436 10447 10457 10466 10475 10484 10492 10499 10505 10509 10520 10529 10533 10539 10550 10559 10564 10569 10580 10585 10593 10600 10606 10611 10615 10622 10630 10635 10643 10652
10276 10277 10279 10281 10283 10285 10287 10291 10294 10298 10303 10309 10314 10321 10328 10335 10343 10351 10358 10366 10376 10386 10397 10407 10417 10427 10437 10445 10453 10461 10468 10474 10481 10486 10494 10502 10508 10514 10519 10526 10535 10542 10551 10555 10561 10570 10579 10586 10590 10595 10600 10608 10616 10625
10275 10276 10277 10278 10280 10282 10285 10288 10292 10296 10301 10306 10312 10317 10323 10329 10335 10341 10347 10355 10363 10371 10379 10388 10397 10406 10414 10423 10430 10438 10445 10451 10457 10462 10468 10475 10480 10485 10488 10493 10501 10509 10516 10522 10530 10537 10545 10553 10560 10566 10571 10578 10586 10597
10275 10276 10276 10277 10278 10280 10283 10286 10290 10295 10299 10304 10309 10314 10319 10323 10328 10334 10340 10346 10352 10359 10365 10373 10381 10389 10397 10404 10410 10415 10421 10426 10431 10436 10440 10446 10450 10453 10457 10461 10468 10473 10478 10483 10492 10500 10506 10515 10522 10527 10535 10547 10554 10564
10279 10279 10279 10279 10280 10281 10283 10286 10289 10293 10298 10302 10307 10312 10316 10320 10325 10329 10334 10338 10343 10348 10354 10359 10365 10371 10376 10381 10386 10392 10397 10403 10408 10410 10412 10415 10418 10422 10426 10429 10432 10436 10440 10446 10450 10455 10462 10470 10478 10484 10492 10507 10519 10527
10283 10283 10283 10284 10284 10285 10287 10290 10293 10296 10299 10303 10307 10312 10316 10320 10324 10328 10332 10336 10339 10343 10346 10350 10354 10357 10361 10365 10370 10373 10377 10381 10384 10386 10389 10393 10396 10399 10401 10404 10408 10413 10416 10420 10424 10426 10431 10438 10443 10448 10457 10468 10479 10490
10289 10290 10290 10291 10292 10293 10295 10296 10299 10301 10304 10307 10310 10313 10317 10320 10323 10326 10329 10332 10335 10338 10340 10343 10346 10349 10352 10355 10358 10360 10362 10364 10366 10368 10370 10373 10376 10381 10384 10387 10392 10395 10399 10401 10404 10407 10412 10416 10421 10427 10433 10440 10448 10457
10298 10299 10299 10300 10300 10301 10303 10304 10306 10308 10310 10312 10314 10316 10318 10320 10323 10325 10328 10330 10332 10334 10336 10338 10341 10343 10345 10347 10348 10350 10351 10353 10354 10355 10357 10360 10363 10368 10372 10375 10378 10381 10384 10386 10389 10391 10395 10399 10404 10409 10415 10422 10430 10440